SCP
-0 -0 -0 -0 -0 -0 -0 -0 -0 0 0 0 0 0 0 0 0 0 0 -0 -0 0 0 0 0 0 0 0 0 0 0 -0 -0 -0 -0 -0 -0 -0 -0 -0 -0 -0 -0
-0 -0 -0 -0 -0 -0 -0 -0 -0 -0 -0 0 0 0 0 0 0 0 0 0 -0 0 0 0 0 0 0 0 0 0 0 0 0 0 -0 -0 -0 -0 -0 -0 -0 -0 -0
-0 -0 -0 -0 -0 -0 -0 -0 -0 -0 -0 -0 -0 0 0 0 0 0 0 0 -0 0 0 0 0 0 0 0 0 0 0 0 0 0 0 0 0 0 0 -0 0 -0 -0
-0 -0 -0 -0 -0 -0 -0 -0 -0 -0 -0 -0 -0 -0 -0 0 0 0 0 -0 -0 0 0 0 0 0 0 0 0 0 0 0 0 0 0 0 0 0 0 0 0 0 0
-0 -0 -0 -0 -0 -0 -0 -0 -0 -0 -0 -0 -0 -0 -0 -0 0 0 0 0 0 0 0 0 0 0 0 0 0 0 0 0 0 0 0 0 0 0 0 0 0 0 0
0 -0 -0 -1 -1 -0 -0 -0 -0 -0 -0 -0 -0 -0 -0 -0 -0 0 0 0 0 0 0 0 0 0 0 0 0 0 0 0 0 0 0 0 0 0 0 0 0 0 0
0 0 -0 -0 -1 -1 -0 -0 -0 0 -0 -0 -0 -0 -0 -0 0 0 0 0 0 0 0 0 0 0 0 0 0 0 0 0 0 0 0 0 0 0 0 0 0 0 0
0 0 -0 -0 -0 -0 -0 -0 -0 -0 0 0 0 0 -0 0 0 0 0 0 0 0 0 0 0 0 0 0 0 0 0 0 0 0 0 0 0 0 0 0 0 0 0
0 0 0 0 0 -0 -0 -0 -0 -0 0 0 0 0 0 0 0 0 0 0 0 0 0 0 0 0 0 0 0 0 0 0 0 0 0 0 0 0 0 0 0 0 0
0 0 0 0 0 0 0 0 0 0 0 0 0 0 0 0 0 0 0 0 0 0 0 0 0 0 0 0 0 0 0 0 0 0 0 0 0 0 0 0 0 0 0
0 0 0 0 0 0 0 0 0 0 0 0 0 0 0 0 0 0 0 0 0 0 0 0 0 0 0 0 0 0 0 0 0 0 0 0 0 0 0 0 0 0 0
0 0 0 0 0 0 0 0 0 0 0 0 0 0 0 0 0 0 0 0 0 0 0 0 0 0 0 0 0 0 0 0 0 0 0 0 0 0 0 0 0 0 0
0 0 0 0 0 0 0 0 0 0 0 0 0 0 0 0 0 0 0 0 0 0 0 0 0 0 0 0 0 0 0 0 0 0 0 0 0 0 0 0 0 0 0
0 0 0 0 0 0 0 0 0 0 0 0 0 0 0 0 0 0 0 0 0 0 0 0 0 0 0 0 0 0 0 0 0 0 0 0 0 0 0 0 0 0 0
0 0 0 0 0 0 0 0 0 0 0 0 0 0 0 0 0 0 0 0 0 0 0 0 0 0 0 0 0 0 0 0 0 0 0 0 0 0 0 0 0 0 0
0 0 0 0 0 0 0 0 0 0 0 0 0 0 0 0 0 0 0 0 0 0 0 0 0 0 0 0 0 0 0 0 0 0 0 0 0 0 0 0 0 0 0
0 0 0 0 0 0 0 0 0 0 0 0 0 0 0 0 0 0 0 0 0 0 0 0 0 0 0 0 0 0 0 0 0 0 0 0 0 0 0 0 0 0 0
0 0 0 0 0 0 0 0 0 0 0 0 0 0 0 0 0 0 0 0 0 0 0 0 0 0 0 0 0 0 0 0 0 0 0 0 0 0 0 0 0 0 0
0 0 0 0 0 0 0 0 0 0 0 0 0 0 0 0 0 0 0 0 0 0 0 0 0 0 0 0 0 0 0 0 0 0 0 0 0 0 0 0 0 0 0
0 0 0 0 0 0 0 0 0 0 0 0 0 0 0 0 0 0 0 0 0 0 0 0 0 0 0 0 0 0 0 0 0 0 0 0 0 0 0 0 0 0 0
0 0 0 0 0 0 0 0 0 0 0 0 0 0 0 0 0 0 0 0 0 0 0 0 0 0 0 0 0 0 0 0 0 0 0 0 0 0 0 0 0 0 0
0 0 0 0 0 0 0 0 0 0 0 0 0 0 0 0 0 0 0 0 0 0 0 0 0 0 0 0 0 0 0 0 0 0 0 0 0 0 0 0 0 0 0
0 0 0 0 0 0 0 0 0 0 0 0 0 0 0 0 0 0 0 0 0 0 0 0 0 0 0 0 0 0 0 0 0 0 0 0 0 0 0 0 0 0 0
0 0 0 0 0 0 0 0 0 0 0 0 0 0 0 0 0 0 0 0 0 0 0 0 0 0 0 0 0 0 0 0 0 0 0 0 0 0 0 0 0 0 0
0 0 0 0 0 0 0 0 0 0 0 0 0 0 0 0 0 0 0 0 0 0 0 0 0 0 0 0 0 0 0 0 0 0 0 0 0 0 0 0 0 0 0
0 0 0 0 0 0 0 0 0 0 0 0 0 0 0 0 0 0 0 0 0 0 0 0 0 0 0 0 0 0 0 0 0 0 0 0 0 0 0 0 0 0 0
Wind_Speed_500mb
26 38 43 44 41 37 36 35 32 29 24 20 17 15 15 14 12 16 16 9 3 1 2 6 8 9 11 11 12 14 18 22 20 16 16 15 13 14 17 17 18 20 18
22 36 44 43 39 34 36 37 31 29 24 19 17 17 16 16 17 17 12 9 10 7 5 4 6 9 10 9 11 12 15 17 17 14 13 10 9 8 9 11 13 16 16
17 30 45 44 40 37 31 27 25 25 24 22 21 18 17 16 16 15 11 6 7 7 7 5 4 6 7 8 10 11 13 13 13 10 8 8 7 5 5 6 7 9 13
11 23 42 45 43 39 35 29 27 25 25 23 20 21 21 18 15 13 14 15 8 8 10 7 5 5 5 5 8 11 13 14 11 7 10 8 4 2 5 7 8 8 7
12 16 34 45 45 42 37 33 31 30 27 26 25 22 18 16 18 19 19 19 16 7 9 10 9 9 8 9 10 11 13 16 13 10 9 7 5 4 7 8 10 9 7
13 17 28 42 45 44 41 37 34 33 29 26 26 25 24 23 25 27 30 30 21 11 11 12 11 11 11 13 14 16 18 20 18 17 15 16 13 8 5 4 2 7 7
12 18 24 35 43 44 44 41 39 37 33 29 28 27 27 30 31 33 35 31 22 17 14 14 13 12 12 13 15 18 20 23 21 20 20 21 22 21 20 18 7 6 7
11 16 23 29 39 44 45 43 42 41 38 33 30 27 28 33 15 17 21 22 21 18 16 13 13 13 13 14 15 18 20 22 19 20 20 22 22 22 21 18 12 11 11
14 18 23 29 34 41 45 45 44 44 42 39 36 33 33 38 28 21 18 22 22 19 18 15 13 13 13 13 13 14 15 16 14 15 16 17 18 17 17 16 14 14 14
20 21 25 28 34 39 43 47 48 48 46 44 42 39 42 42 35 30 19 22 22 21 19 16 14 14 14 14 14 14 14 15 13 14 14 15 16 16 16 17 17 17 18
25 27 30 32 35 39 42 46 48 51 50 48 45 44 47 47 42 36 26 24 25 23 21 18 18 19 20 19 18 17 16 15 15 15 16 17 17 17 17 18 18 20 21
38 33 32 36 38 39 44 47 51 52 52 51 50 49 51 51 48 42 36 32 30 28 25 22 21 23 22 21 19 18 18 17 16 16 16 17 17 18 18 18 19 21 23
40 35 35 33 38 41 44 48 54 57 55 52 52 53 53 53 52 51 46 40 36 34 31 28 25 26 25 23 21 21 20 19 17 17 17 18 18 18 19 19 21 22 23
40 37 36 36 32 35 39 46 51 57 59 59 58 58 57 53 52 56 53 49 43 39 36 34 29 32 30 28 27 25 24 22 20 19 19 20 20 20 20 20 23 23 23
38 40 41 43 37 34 38 40 44 52 55 58 59 58 59 56 57 58 50 49 47 43 39 38 36 37 36 34 33 31 29 28 25 24 23 23 24 23 24 23 23 25 23
33 43 43 44 46 39 40 41 40 44 48 51 52 52 56 57 57 57 55 50 49 46 43 42 41 41 41 41 40 38 36 34 31 29 28 27 26 26 26 26 25 23 18
35 36 42 42 38 36 35 39 43 39 42 47 47 46 50 56 58 57 63 55 49 46 46 47 48 49 49 49 47 45 43 41 38 36 34 31 29 28 27 28 28 25 17
16 26 28 37 37 34 32 34 39 40 40 45 47 46 47 49 52 55 55 60 49 47 50 52 53 53 53 53 52 50 49 47 45 42 40 37 34 31 30 28 29 29 30
15 18 19 20 26 26 21 33 37 38 38 41 44 45 44 45 45 44 50 55 47 45 52 54 55 54 54 55 55 56 55 53 50 49 48 44 40 37 34 32 32 32 36
9 8 7 15 21 19 18 23 29 30 32 34 35 35 37 40 42 43 48 46 46 52 55 56 56 56 57 55 57 59 60 59 58 57 54 50 47 45 40 37 36 36 41
11 8 9 9 12 13 16 17 18 19 22 23 25 29 31 35 39 40 42 48 47 54 55 54 57 59 62 58 59 64 66 65 65 65 60 59 58 52 48 44 41 42 45
40 33 24 19 11 6 5 8 10 11 15 17 19 22 25 27 31 35 37 44 47 51 53 54 56 60 62 61 63 63 57 64 75 74 69 69 65 62 57 54 50 49 50
61 57 50 41 32 22 11 3 1 7 9 15 19 17 20 20 21 24 30 35 43 48 52 54 56 58 61 62 66 57 20 35 46 53 67 77 75 72 66 61 58 57 55
57 54 54 51 48 43 33 24 18 9 6 6 5 10 20 25 27 26 26 30 38 45 49 51 54 59 59 62 66 72 76 67 31 29 36 42 62 72 73 70 67 64 60
46 47 45 41 41 40 39 40 35 28 22 16 13 12 13 16 21 25 28 34 37 37 41 46 50 55 60 63 66 68 73 78 85 83 71 61 61 53 56 65 69 68 66
37 35 34 33 33 30 28 27 27 26 27 23 22 19 18 19 18 19 21 24 26 32 41 46 46 51 57 63 65 67 72 69 68 77 86 93 93 86 76 69 69 68 68
Wind_Direction_500mb
172 180 186 186 189 189 187 190 189 184 182 180 174 173 172 164 159 151 160 165 157 77 85 95 94 95 139 144 137 131 129 131 133 118 112 105 101 99 94 94 89 86 80
176 177 191 194 196 198 197 196 191 184 189 190 189 186 184 177 172 174 186 212 238 226 163 122 118 109 120 144 150 141 134 137 145 141 125 111 124 112 109 109 110 107 96
171 182 190 197 201 205 210 210 201 196 198 199 198 201 198 192 189 188 198 199 179 167 154 148 125 121 126 131 144 151 155 161 169 163 153 116 120 154 153 144 132 135 122
177 193 192 199 205 210 215 216 219 218 214 214 212 212 209 204 208 200 186 189 195 214 196 187 171 163 152 160 163 164 169 189 182 157 128 111 73 19 204 186 165 163 172
202 191 202 204 209 214 217 220 220 220 227 211 214 218 222 207 215 218 216 216 231 243 212 214 213 204 205 210 209 197 197 213 209 206 185 154 162 78 94 170 182 175 182
234 216 203 208 212 214 217 220 222 226 227 221 207 224 233 236 235 233 227 236 243 251 226 234 235 233 234 227 222 218 220 223 222 222 227 227 225 230 279 109 194 153 174
235 230 215 213 215 217 218 219 219 221 226 226 225 224 238 248 254 244 237 240 247 252 241 243 243 245 239 236 232 230 228 234 230 233 233 240 245 256 271 289 256 232 224
252 240 228 221 221 223 224 223 222 224 226 225 227 228 249 255 256 248 231 234 242 253 251 248 247 245 241 231 225 224 226 235 234 238 239 240 245 255 268 276 269 255 248
261 245 237 234 227 228 229 229 227 227 228 228 230 238 241 254 263 264 253 238 246 249 246 244 240 233 218 212 212 214 219 231 233 240 244 246 250 255 262 267 268 266 261
276 260 250 241 237 234 230 230 231 231 232 232 233 231 235 247 256 259 263 261 248 244 246 239 234 224 218 218 222 225 232 237 246 247 247 252 257 259 258 261 263 264 263
281 280 265 248 243 240 240 238 233 229 232 234 234 231 233 243 250 254 257 264 257 247 239 231 226 220 221 224 229 233 238 247 252 254 256 260 263 261 262 264 264 263 262
283 289 284 262 250 245 240 238 240 229 230 230 233 233 237 243 248 252 254 258 258 254 246 236 228 225 227 233 236 241 247 251 253 256 258 262 265 269 269 266 264 264 266
288 277 279 279 260 252 247 242 238 236 237 236 237 238 241 244 247 251 253 255 256 252 249 240 235 236 237 241 244 248 251 255 257 262 265 267 268 272 274 273 272 270 265
289 291 278 269 264 257 255 252 244 237 238 240 241 241 241 236 240 252 253 255 255 252 248 244 237 237 239 241 244 248 252 256 259 265 270 275 277 275 273 272 273 271 269
276 271 271 265 266 266 257 254 252 245 241 242 242 243 244 234 240 252 255 252 252 253 249 245 240 242 243 244 247 249 252 255 258 261 264 266 271 273 273 271 272 273 272
290 273 265 262 256 271 267 265 262 256 248 244 244 244 244 248 247 254 260 252 251 253 254 251 246 245 245 246 246 247 249 251 253 256 260 263 266 269 272 273 271 267 258
291 282 266 256 251 262 275 270 265 267 263 253 249 248 249 254 258 261 258 261 257 257 257 254 249 245 243 244 245 246 247 248 250 251 254 258 261 265 267 266 265 267 222
301 288 277 252 233 245 272 268 263 265 269 265 259 257 256 258 260 263 250 266 258 259 261 257 255 251 248 247 247 248 247 247 249 251 254 255 259 260 261 260 256 253 250
301 294 278 245 220 218 239 252 250 256 265 268 265 263 262 258 256 258 259 262 254 262 266 265 260 257 254 252 251 247 247 247 247 249 252 255 257 260 261 258 253 252 252
324 310 286 228 221 215 213 232 245 252 258 260 261 264 264 263 260 262 259 259 261 260 267 265 262 259 260 261 258 254 251 248 248 250 252 253 256 256 255 254 255 250 252
76 102 104 127 167 193 189 203 226 250 259 262 259 268 272 272 271 267 265 260 258 265 268 268 266 262 260 259 259 257 256 255 252 252 251 254 254 255 254 253 252 250 250
67 66 66 74 93 121 177 221 233 235 234 235 244 254 265 272 275 277 275 271 273 271 274 269 266 264 263 258 254 256 261 263 258 255 254 254 255 254 253 253 252 251 249
61 58 55 53 52 51 46 59 171 239 238 242 244 256 258 265 271 276 278 279 278 276 273 275 275 271 267 263 259 248 239 245 262 262 255 253 253 254 255 253 253 253 252
58 55 51 51 51 50 46 42 43 46 352 359 318 262 262 266 267 258 261 266 270 275 277 277 275 274 272 268 263 256 249 252 268 279 271 264 256 253 255 254 254 254 253
64 57 51 48 45 42 37 40 40 36 29 6 328 301 298 290 286 282 272 265 265 271 279 277 274 270 269 270 268 268 265 260 258 262 274 271 271 270 265 261 258 256 255
55 52 50 43 45 41 38 38 37 36 36 27 22 10 356 339 323 310 304 293 288 283 279 272 272 271 270 268 266 266 265 262 263 265 268 272 275 273 272 270 266 263 259
Wind_Speed_850mb
26 38 43 44 41 37 36 35 32 29 24 20 17 15 15 14 12 16 16 9 3 1 2 6 8 9 11 11 12 14 18 22 20 16 16 15 13 14 17 17 18 20 18
22 36 44 43 39 34 36 37 31 29 24 19 17 17 16 16 17 17 12 9 10 7 5 4 6 9 10 9 11 12 15 17 17 14 13 10 9 8 9 11 13 16 16
17 30 45 44 40 37 31 27 25 25 24 22 21 18 17 16 16 15 11 6 7 7 7 5 4 6 7 8 10 11 13 13 13 10 8 8 7 5 5 6 7 9 13
11 23 42 45 43 39 35 29 27 25 25 23 20 21 21 18 15 13 14 15 8 8 10 7 5 5 5 5 8 11 13 14 11 7 10 8 4 2 5 7 8 8 7
12 16 34 45 45 42 37 33 31 30 27 26 25 22 18 16 18 19 19 19 16 7 9 10 9 9 8 9 10 11 13 16 13 10 9 7 5 4 7 8 10 9 7
13 17 28 42 45 44 41 37 34 33 29 26 26 25 24 23 25 27 30 30 21 11 11 12 11 11 11 13 14 16 18 20 18 17 15 16 13 8 5 4 2 7 7
12 18 24 35 43 44 44 41 39 37 33 29 28 27 27 30 31 33 35 31 22 17 14 14 13 12 12 13 15 18 20 23 21 20 20 21 22 21 20 18 7 6 7
11 16 23 29 39 44 45 43 42 41 38 33 30 27 28 33 15 17 21 22 21 18 16 13 13 13 13 14 15 18 20 22 19 20 20 22 22 22 21 18 12 11 11
14 18 23 29 34 41 45 45 44 44 42 39 36 33 33 38 28 21 18 22 22 19 18 15 13 13 13 13 13 14 15 16 14 15 16 17 18 17 17 16 14 14 14
20 21 25 28 34 39 43 47 48 48 46 44 42 39 42 42 35 30 19 22 22 21 19 16 14 14 14 14 14 14 14 15 13 14 14 15 16 16 16 17 17 17 18
25 27 30 32 35 39 42 46 48 51 50 48 45 44 47 47 42 36 26 24 25 23 21 18 18 19 20 19 18 17 16 15 15 15 16 17 17 17 17 18 18 20 21
38 33 32 36 38 39 44 47 51 52 52 51 50 49 51 51 48 42 36 32 30 28 25 22 21 23 22 21 19 18 18 17 16 16 16 17 17 18 18 18 19 21 23
40 35 35 33 38 41 44 48 54 57 55 52 52 53 53 53 52 51 46 40 36 34 31 28 25 26 25 23 21 21 20 19 17 17 17 18 18 18 19 19 21 22 23
40 37 36 36 32 35 39 46 51 57 59 59 58 58 57 53 52 56 53 49 43 39 36 34 29 32 30 28 27 25 24 22 20 19 19 20 20 20 20 20 23 23 23
38 40 41 43 37 34 38 40 44 52 55 58 59 58 59 56 57 58 50 49 47 43 39 38 36 37 36 34 33 31 29 28 25 24 23 23 24 23 24 23 23 25 23
33 43 43 44 46 39 40 41 40 44 48 51 52 52 56 57 57 57 55 50 49 46 43 42 41 41 41 41 40 38 36 34 31 29 28 27 26 26 26 26 25 23 18
35 36 42 42 38 36 35 39 43 39 42 47 47 46 50 56 58 57 63 55 49 46 46 47 48 49 49 49 47 45 43 41 38 36 34 31 29 28 27 28 28 25 17
16 26 28 37 37 34 32 34 39 40 40 45 47 46 47 49 52 55 55 60 49 47 50 52 53 53 53 53 52 50 49 47 45 42 40 37 34 31 30 28 29 29 30
15 18 19 20 26 26 21 33 37 38 38 41 44 45 44 45 45 44 50 55 47 45 52 54 55 54 54 55 55 56 55 53 50 49 48 44 40 37 34 32 32 32 36
9 8 7 15 21 19 18 23 29 30 32 34 35 35 37 40 42 43 48 46 46 52 55 56 56 56 57 55 57 59 60 59 58 57 54 50 47 45 40 37 36 36 41
11 8 9 9 12 13 16 17 18 19 22 23 25 29 31 35 39 40 42 48 47 54 55 54 57 59 62 58 59 64 66 65 65 65 60 59 58 52 48 44 41 42 45
40 33 24 19 11 6 5 8 10 11 15 17 19 22 25 27 31 35 37 44 47 51 53 54 56 60 62 61 63 63 57 64 75 74 69 69 65 62 57 54 50 49 50
61 57 50 41 32 22 11 3 1 7 9 15 19 17 20 20 21 24 30 35 43 48 52 54 56 58 61 62 66 57 20 35 46 53 67 77 75 72 66 61 58 57 55
57 54 54 51 48 43 33 24 18 9 6 6 5 10 20 25 27 26 26 30 38 45 49 51 54 59 59 62 66 72 76 67 31 29 36 42 62 72 73 70 67 64 60
46 47 45 41 41 40 39 40 35 28 22 16 13 12 13 16 21 25 28 34 37 37 41 46 50 55 60 63 66 68 73 78 85 83 71 61 61 53 56 65 69 68 66
37 35 34 33 33 30 28 27 27 26 27 23 22 19 18 19 18 19 21 24 26 32 41 46 46 51 57 63 65 67 72 69 68 77 86 93 93 86 76 69 69 68 68
Wind_Direction_850mb
172 180 186 186 189 189 187 190 189 184 182 180 174 173 172 164 159 151 160 165 157 77 85 95 94 95 139 144 137 131 129 131 133 118 112 105 101 99 94 94 89 86 80
176 177 191 194 196 198 197 196 191 184 189 190 189 186 184 177 172 174 186 212 238 226 163 122 118 109 120 144 150 141 134 137 145 141 125 111 124 112 109 109 110 107 96
171 182 190 197 201 205 210 210 201 196 198 199 198 201 198 192 189 188 198 199 179 167 154 148 125 121 126 131 144 151 155 161 169 163 153 116 120 154 153 144 132 135 122
177 193 192 199 205 210 215 216 219 218 214 214 212 212 209 204 208 200 186 189 195 214 196 187 171 163 152 160 163 164 169 189 182 157 128 111 73 19 204 186 165 163 172
202 191 202 204 209 214 217 220 220 220 227 211 214 218 222 207 215 218 216 216 231 243 212 214 213 204 205 210 209 197 197 213 209 206 185 154 162 78 94 170 182 175 182
234 216 203 208 212 214 217 220 222 226 227 221 207 224 233 236 235 233 227 236 243 251 226 234 235 233 234 227 222 218 220 223 222 222 227 227 225 230 279 109 194 153 174
235 230 215 213 215 217 218 219 219 221 226 226 225 224 238 248 254 244 237 240 247 252 241 243 243 245 239 236 232 230 228 234 230 233 233 240 245 256 271 289 256 232 224
252 240 228 221 221 223 224 223 222 224 226 225 227 228 249 255 256 248 231 234 242 253 251 248 247 245 241 231 225 224 226 235 234 238 239 240 245 255 268 276 269 255 248
261 245 237 234 227 228 229 229 227 227 228 228 230 238 241 254 263 264 253 238 246 249 246 244 240 233 218 212 212 214 219 231 233 240 244 246 250 255 262 267 268 266 261
276 260 250 241 237 234 230 230 231 231 232 232 233 231 235 247 256 259 263 261 248 244 246 239 234 224 218 218 222 225 232 237 246 247 247 252 257 259 258 261 263 264 263
281 280 265 248 243 240 240 238 233 229 232 234 234 231 233 243 250 254 257 264 257 247 239 231 226 220 221 224 229 233 238 247 252 254 256 260 263 261 262 264 264 263 262
283 289 284 262 250 245 240 238 240 229 230 230 233 233 237 243 248 252 254 258 258 254 246 236 228 225 227 233 236 241 247 251 253 256 258 262 265 269 269 266 264 264 266
288 277 279 279 260 252 247 242 238 236 237 236 237 238 241 244 247 251 253 255 256 252 249 240 235 236 237 241 244 248 251 255 257 262 265 267 268 272 274 273 272 270 265
289 291 278 269 264 257 255 252 244 237 238 240 241 241 241 236 240 252 253 255 255 252 248 244 237 237 239 241 244 248 252 256 259 265 270 275 277 275 273 272 273 271 269
276 271 271 265 266 266 257 254 252 245 241 242 242 243 244 234 240 252 255 252 252 253 249 245 240 242 243 244 247 249 252 255 258 261 264 266 271 273 273 271 272 273 272
290 273 265 262 256 271 267 265 262 256 248 244 244 244 244 248 247 254 260 252 251 253 254 251 246 245 245 246 246 247 249 251 253 256 260 263 266 269 272 273 271 267 258
291 282 266 256 251 262 275 270 265 267 263 253 249 248 249 254 258 261 258 261 257 257 257 254 249 245 243 244 245 246 247 248 250 251 254 258 261 265 267 266 265 267 222
301 288 277 252 233 245 272 268 263 265 269 265 259 257 256 258 260 263 250 266 258 259 261 257 255 251 248 247 247 248 247 247 249 251 254 255 259 260 261 260 256 253 250
301 294 278 245 220 218 239 252 250 256 265 268 265 263 262 258 256 258 259 262 254 262 266 265 260 257 254 252 251 247 247 247 247 249 252 255 257 260 261 258 253 252 252
324 310 286 228 221 215 213 232 245 252 258 260 261 264 264 263 260 262 259 259 261 260 267 265 262 259 260 261 258 254 251 248 248 250 252 253 256 256 255 254 255 250 252
76 102 104 127 167 193 189 203 226 250 259 262 259 268 272 272 271 267 265 260 258 265 268 268 266 262 260 259 259 257 256 255 252 252 251 254 254 255 254 253 252 250 250
67 66 66 74 93 121 177 221 233 235 234 235 244 254 265 272 275 277 275 271 273 271 274 269 266 264 263 258 254 256 261 263 258 255 254 254 255 254 253 253 252 251 249
61 58 55 53 52 51 46 59 171 239 238 242 244 256 258 265 271 276 278 279 278 276 273 275 275 271 267 263 259 248 239 245 262 262 255 253 253 254 255 253 253 253 252
58 55 51 51 51 50 46 42 43 46 352 359 318 262 262 266 267 258 261 266 270 275 277 277 275 274 272 268 263 256 249 252 268 279 271 264 256 253 255 254 254 254 253
64 57 51 48 45 42 37 40 40 36 29 6 328 301 298 290 286 282 272 265 265 271 279 277 274 270 269 270 268 268 265 260 258 262 274 271 271 270 265 261 258 256 255
55 52 50 43 45 41 38 38 37 36 36 27 22 10 356 339 323 310 304 293 288 283 279 272 272 271 270 268 266 266 265 262 263 265 268 272 275 273 272 270 266 263 259